sat.trackr.live / text

‹ back to catalog

STARLINK-11722 [DTC]

NORAD 64128 · 2025-111F

PAYLOAD ACTIVE UNKNOWN

§ Identity

Operator
Country
US
Launch date
2025-05-24
Launch site
AFETR
Launch vehicle
Mass (kg)
RCS (m²)

Purposes: comms

External: N2YO · Heavens-Above · Gunter

§ Orbital elements

Epoch: 2026-05-25T04:55:41.306016Z

Period
91.67 min
Inclination
43.0013°
Eccentricity
0.0002121
Mean motion
15.70890399 rev/d
Perigee alt
354.9 km
Apogee alt
357.8 km
Semi-major
6,734.5 km
B*
1.4769e-3
RAAN
232.5838°
Arg perigee
266.9872°
Mean anomaly
93.0753°
Rev number
5,862

§ Raw data

STARLINK-11722 [DTC]1 64128U 25111F   26145.20533919  .00193961  00000+0  14769-2 0  99982 64128  43.0013 232.5838 0002121 266.9872  93.0753 15.70890399 58620

JSON: /api/v1/satellites/64128 · /tle

For live sub-satellite position, see the globe view (requires WebGL).

§ Visibility from observer

Set your observer location to see the next 7 days of passes ≥ 10°. The values pass through the URL so the page stays shareable.

No JS? Fill the form by hand. The geolocation button needs JavaScript.